Wetbulb
67.02 67.72 64.05 62.42 53.04 52.36 49.12 55.01 59.07 57.53 60.30 65.03 66.08 64.15 62.60 63.87 61.21 56.54 71.32 72.64 72.90 72.84 73.54 74.94 76.09 75.33 75.21 75.39 75.31 75.26 75.16 75.04 75.04 74.86 74.74 74.79 74.74 74.33 74.33 74.79 74.81 74.31 73.29 72.93 72.64 72.53 72.44 72.46 72.40
61.55 63.37 60.78 55.46 49.25 46.06 48.97 54.89 56.18 58.87 61.80 63.17 64.39 65.47 63.66 62.17 67.75 67.94 69.02 72.45 72.09 72.21 72.70 73.79 76.04 75.71 75.06 74.99 74.86 75.21 75.14 75.06 75.11 75.11 74.64 74.46 74.39 74.13 74.15 74.43 74.15 74.21 73.97 73.93 73.53 73.41 73.29 73.13 72.94
64.03 60.79 53.46 49.93 47.21 46.68 48.79 55.78 58.13 60.19 62.12 61.91 63.12 67.72 64.69 64.10 68.23 68.21 71.81 72.58 72.13 71.89 72.54 73.07 75.77 75.82 75.11 75.34 75.41 75.66 75.69 75.51 75.11 74.43 74.46 74.31 73.79 73.44 73.24 73.14 73.09 73.15 73.17 73.60 73.69 74.10 74.15 74.13 74.13
55.44 55.45 52.64 47.92 47.33 51.95 54.75 57.46 58.09 58.59 59.65 60.72 64.23 61.89 66.59 69.81 69.39 71.65 73.46 72.82 71.46 71.82 72.75 75.38 75.84 75.56 75.14 74.30 74.20 74.66 74.74 74.89 74.94 74.71 74.16 73.38 73.06 72.77 72.72 72.57 72.54 72.60 72.60 72.64 73.07 73.21 73.53 73.69 74.04
53.65 51.03 45.21 48.09 49.41 54.44 57.37 60.45 59.00 58.33 57.57 58.42 61.76 61.66 63.49 68.49 72.61 73.41 73.10 72.13 71.36 71.34 73.04 74.11 75.93 75.89 75.54 74.68 74.96 75.11 74.56 73.97 73.24 72.78 72.80 72.73 72.66 72.97 72.69 72.31 72.63 72.95 73.07 73.32 73.50 73.63 73.77 73.79 73.59
47.28 47.93 41.25 38.64 48.66 56.58 58.38 60.30 57.85 56.69 57.21 63.94 62.34 62.42 63.16 68.99 71.16 72.33 72.31 71.09 72.09 71.84 72.66 73.08 75.69 76.08 75.76 75.44 74.56 74.17 73.87 73.77 73.59 73.42 73.01 72.79 73.49 73.87 73.92 73.62 73.39 73.51 73.56 73.24 73.21 73.44 73.62 74.00 74.03
45.51 43.66 40.99 41.95 50.55 53.80 58.01 60.68 59.32 61.21 61.92 62.71 64.95 60.40 63.51 65.94 69.96 71.28 71.37 71.22 71.46 72.26 72.16 72.21 73.53 74.26 74.71 74.71 74.09 74.19 74.18 73.89 73.10 73.02 73.00 73.29 73.59 74.04 73.57 74.46 74.49 74.12 73.84 72.90 72.62 72.87 72.95 73.73 73.61
47.20 44.55 40.47 41.42 48.18 49.97 59.76 60.89 63.06 63.12 62.88 68.08 66.35 60.91 58.68 62.38 68.67 70.07 69.93 69.25 69.09 70.25 71.20 70.90 71.47 71.65 71.00 71.56 74.51 74.49 74.21 73.37 72.82 71.69 70.82 70.53 70.09 71.61 72.35 73.12 73.61 74.12 73.37 73.27 73.27 73.57 73.59 73.59 73.68
46.81 40.24 38.47 40.83 44.85 52.98 60.11 56.29 60.12 63.74 64.45 65.46 66.88 65.13 64.12 68.83 69.48 68.96 68.88 69.30 69.10 69.32 69.00 69.46 69.43 68.59 69.30 71.24 72.85 74.03 73.36 70.49 69.06 67.75 68.57 66.53 65.63 66.54 66.11 70.19 71.51 72.10 71.80 72.15 71.05 72.14 71.59 71.09 73.15
43.25 39.59 41.62 46.71 47.67 54.77 57.75 57.10 59.50 63.18 62.87 62.48 63.45 65.12 66.09 68.28 67.46 66.28 66.24 65.80 66.33 66.49 67.18 67.33 67.61 67.40 69.60 72.39 70.02 69.40 67.07 65.35 64.42 63.72 62.67 63.02 62.38 63.03 64.10 65.51 67.00 68.53 67.35 67.07 67.06 67.63 68.15 65.81 63.79
40.59 40.28 44.37 46.80 49.68 58.47 57.80 60.00 61.07 62.43 59.37 61.80 60.96 64.36 66.13 66.40 66.15 65.74 65.65 65.77 65.45 65.93 66.37 66.62 66.20 66.06 65.96 65.71 64.68 64.75 65.63 64.32 62.81 61.81 60.83 60.61 60.04 59.19 59.56 60.07 60.18 62.50 62.66 60.16 60.89 61.12 61.42 61.40 60.75
43.92 44.03 44.23 46.24 58.18 60.76 59.49 60.89 59.07 61.57 62.45 64.31 64.76 66.21 66.04 65.40 65.33 65.37 64.72 64.90 64.54 64.65 64.94 65.44 65.38 63.99 63.06 62.98 61.97 61.30 61.97 63.04 60.64 59.32 58.64 58.04 57.23 56.71 56.93 57.45 58.02 59.25 57.96 57.33 57.71 58.31 59.64 58.67 59.14
41.64 44.33 45.06 46.69 55.93 61.20 62.03 59.10 59.56 58.54 64.60 65.71 65.55 65.78 65.17 64.80 65.09 65.32 64.98 64.64 64.22 63.18 63.60 63.60 63.70 62.65 62.20 61.04 60.14 59.95 60.18 60.38 59.24 57.45 56.85 57.10 55.75 54.86 54.81 55.85 56.31 56.83 56.40 56.23 56.62 57.53 57.30 56.80 57.15
45.02 45.12 46.18 45.91 58.64 59.96 57.53 57.14 57.89 58.80 64.37 64.87 64.05 63.71 64.50 64.69 64.12 63.32 62.89 61.97 62.57 62.85 62.56 62.70 62.63 61.93 61.11 59.49 58.00 57.35 58.12 57.81 56.86 55.75 55.78 56.29 55.35 54.29 53.68 54.40 55.12 55.61 55.28 55.64 56.13 56.29 55.42 55.20 56.04
46.66 44.40 45.75 45.67 58.73 58.41 58.29 54.78 56.92 61.44 62.78 63.18 62.53 63.26 64.08 63.29 63.64 62.21 62.19 61.05 60.02 62.34 62.21 62.32 62.10 59.88 59.59 58.66 57.85 56.05 56.05 55.46 55.30 54.72 55.30 55.78 54.66 54.56 53.04 53.70 54.50 55.08 55.26 55.32 55.88 55.13 54.83 55.10 55.81
45.01 42.69 38.33 42.65 53.85 60.59 57.68 53.26 57.71 61.10 61.90 61.49 62.22 62.03 61.90 61.95 62.04 62.05 61.78 58.96 56.81 56.98 56.32 56.76 58.81 55.79 55.79 54.51 55.87 57.43 56.37 54.44 54.26 54.08 54.50 55.20 55.51 54.49 53.00 52.78 52.76 53.96 54.62 54.94 54.31 53.28 52.93 52.98 53.33
41.38 38.26 39.31 43.08 46.18 55.59 49.87 54.31 59.65 61.74 62.18 60.68 60.63 60.30 60.01 59.58 59.69 59.99 59.15 56.90 56.16 55.91 55.13 55.20 55.65 54.98 54.46 53.62 53.78 53.90 54.06 54.12 53.19 53.16 53.66 54.10 54.69 53.75 51.52 51.66 51.73 53.11 53.53 53.70 53.87 52.33 51.68 51.52 52.53
38.24 38.32 40.28 40.91 45.12 45.57 50.43 55.43 59.65 60.67 61.14 60.58 59.66 58.81 58.35 57.71 56.30 56.43 56.75 57.11 56.76 56.05 55.32 54.44 54.25 53.99 54.18 53.19 52.77 52.98 53.59 53.49 53.54 53.10 52.60 52.73 52.93 53.31 50.68 51.24 52.04 52.73 52.91 53.55 53.86 51.82 52.07 51.82 51.70
43.20 41.95 42.18 43.89 46.76 45.91 48.54 55.67 58.08 59.84 60.11 59.62 57.97 56.52 56.27 55.51 55.35 56.05 56.52 56.79 56.44 55.50 54.43 53.70 53.00 52.59 53.45 52.59 50.89 51.75 51.47 50.99 50.78 51.21 52.41 52.29 52.33 52.64 51.08 51.50 53.94 53.00 55.22 54.78 52.45 52.08 51.01 51.11 52.75
43.47 41.71 42.01 45.23 50.84 47.37 53.64 54.83 58.00 59.03 59.40 59.90 57.63 56.19 55.10 53.46 53.65 55.23 55.50 56.00 55.17 54.62 54.13 53.04 52.70 52.14 52.34 51.85 51.29 51.38 51.50 49.83 49.90 50.26 50.92 51.61 51.46 52.03 52.66 53.93 54.68 52.49 55.08 54.53 53.98 51.34 50.53 52.69 52.13
43.38 41.24 42.30 45.26 51.27 51.83 54.45 51.75 54.79 57.58 58.23 60.35 58.77 57.95 55.60 53.55 52.87 54.20 55.08 55.26 55.31 54.23 53.64 53.02 52.72 51.98 51.10 50.44 49.38 48.66 48.52 47.66 46.67 46.62 47.50 49.15 51.63 52.19 52.22 54.64 54.48 54.51 54.57 54.26 53.46 49.56 48.87 49.33 50.83
40.10 45.83 46.09 45.87 47.29 43.42 51.52 42.00 51.00 53.32 52.50 57.85 58.13 55.39 54.40 53.78 54.17 54.64 55.14 54.57 55.10 53.92 53.61 52.87 52.34 51.84 50.19 49.28 47.57 46.37 44.96 44.11 44.78 45.13 46.07 47.48 50.17 51.60 53.90 54.15 54.46 53.66 53.56 52.98 49.93 49.98 47.60 46.51 45.46
44.93 47.34 45.65 46.15 45.89 43.13 44.13 39.90 42.39 51.86 51.01 53.90 56.89 54.70 54.84 53.82 53.86 54.30 54.72 54.54 54.76 54.20 52.75 52.42 51.88 50.24 49.00 48.15 47.07 45.84 44.49 44.85 46.03 46.60 46.46 47.08 48.83 52.27 53.95 53.23 52.69 51.09 50.59 49.34 48.75 48.32 46.81 45.80 44.58
48.90 45.57 42.88 41.90 42.15 37.11 43.65 43.57 41.40 48.21 53.16 53.20 56.78 55.89 54.56 53.65 54.36 54.42 54.53 54.65 54.41 53.62 52.77 52.18 50.76 49.25 49.01 48.43 46.98 45.63 45.43 45.18 45.41 45.18 45.56 46.44 46.92 49.51 49.80 50.65 48.91 47.49 47.89 46.81 46.76 47.34 46.86 45.40 44.75
44.66 39.00 33.37 33.37 33.40 35.29 42.77 40.94 42.15 51.70 55.06 55.77 53.48 55.67 54.20 54.17 54.13 53.74 53.13 53.52 53.15 52.60 52.36 51.39 50.23 48.22 47.94 47.67 47.23 46.87 46.46 45.79 44.86 44.74 45.26 45.10 45.63 46.87 50.48 51.98 47.74 46.43 47.54 47.54 46.61 45.73 46.19 46.18 44.08
42.49 40.15 34.42 29.84 31.81 35.66 43.11 38.47 43.84 53.72 57.55 54.31 54.90 54.95 54.66 54.18 54.38 53.76 53.80 53.02 52.62 52.41 52.54 50.95 49.81 47.92 47.42 47.46 46.94 46.88 46.30 45.96 45.98 45.43 45.80 45.89 46.71 48.74 50.91 51.44 49.90 47.40 47.84 48.25 46.79 45.46 46.86 44.61 44.99
42.48 39.45 43.08 38.29 38.19 35.71 38.61 44.04 49.24 52.77 53.10 53.65 54.31 54.86 54.04 54.14 54.11 53.39 52.57 52.51 51.88 51.92 51.73 50.32 49.53 48.17 47.62 47.23 47.10 46.56 46.64 46.18 45.84 46.17 45.81 45.02 43.74 47.10 45.85 49.31 50.81 48.36 47.57 47.46 50.40 49.91 48.16 47.51 47.34
44.98 46.08 39.33 36.80 32.20 30.89 38.18 39.98 40.69 46.75 50.27 51.77 54.38 53.69 54.37 54.86 53.58 53.40 52.50 51.87 52.41 52.26 51.34 50.32 50.16 48.66 47.60 47.47 47.25 47.28 46.83 47.13 46.35 45.74 44.51 43.75 43.70 44.45 46.12 46.30 50.01 46.12 45.52 45.46 45.10 44.73 46.24 45.83 47.87
42.99 40.97 41.02 40.17 37.81 33.41 32.83 37.36 46.11 47.75 49.78 50.93 53.57 55.07 54.88 54.46 53.23 52.97 52.90 51.75 51.90 51.43 50.76 49.81 49.76 48.57 47.81 47.34 46.97 46.99 46.95 47.51 46.98 44.56 45.16 45.24 43.71 43.91 45.70 47.07 45.69 44.54 43.43 43.49 43.63 44.71 46.27 44.68 45.71
45.76 44.42 42.63 37.03 36.52 38.08 36.91 37.15 48.64 48.94 50.73 53.58 54.54 55.69 56.16 55.95 53.77 53.62 52.06 51.55 50.66 50.44 50.36 49.70 49.59 48.52 47.86 47.41 47.23 46.52 46.31 45.00 45.47 45.27 46.17 48.11 44.03 44.04 44.68 46.10 44.37 43.75 42.74 41.77 43.06 44.61 47.13 45.47 43.64
MSLP
1009.71 1010.16 1010.16 1010.45 1011.83 1012.86 1013.28 1013.09 1013.08 1012.75 1012.75 1012.99 1011.98 1011.82 1012.16 1012.16 1012.38 1013.69 1014.00 1014.24 1014.59 1014.75 1014.92 1014.98 1015.04 1014.94 1014.98 1015.04 1015.21 1015.28 1015.14 1015.03 1015.00 1014.98 1014.98 1014.89 1014.77 1014.69 1014.66 1014.60 1014.56 1014.50 1014.49 1014.47 1014.48 1014.46 1014.40 1014.37 1014.31
1009.53 1010.08 1010.45 1011.03 1012.24 1013.60 1013.56 1013.22 1013.15 1014.20 1014.61 1013.71 1013.53 1012.52 1012.23 1012.83 1012.62 1013.55 1014.24 1014.67 1014.52 1014.66 1014.78 1014.98 1015.09 1015.23 1015.16 1015.18 1015.41 1015.37 1015.29 1015.17 1015.15 1015.04 1014.98 1014.91 1014.80 1014.74 1014.72 1014.72 1014.71 1014.64 1014.54 1014.48 1014.45 1014.45 1014.44 1014.39 1014.33
1009.19 1009.27 1010.41 1011.26 1012.57 1013.42 1013.00 1012.07 1012.87 1013.98 1015.42 1015.06 1013.79 1012.32 1011.85 1012.60 1013.08 1013.48 1013.80 1014.51 1014.69 1014.96 1015.00 1014.95 1015.20 1015.35 1015.33 1015.22 1015.41 1015.47 1015.37 1015.28 1015.22 1015.07 1015.09 1015.03 1015.03 1014.97 1014.93 1014.87 1014.82 1014.72 1014.60 1014.56 1014.48 1014.42 1014.37 1014.31 1014.24
1008.91 1009.66 1010.41 1011.27 1012.79 1013.05 1013.00 1012.68 1013.03 1013.09 1013.45 1014.07 1014.15 1012.72 1012.09 1012.11 1012.64 1013.04 1013.92 1014.31 1014.70 1015.11 1015.18 1015.22 1015.17 1015.25 1015.30 1015.40 1015.39 1015.44 1015.45 1015.42 1015.34 1015.25 1015.27 1015.28 1015.14 1015.10 1014.94 1014.90 1014.75 1014.64 1014.51 1014.39 1014.38 1014.34 1014.21 1014.15 1014.06
1009.11 1010.12 1010.98 1012.03 1013.11 1013.21 1013.13 1013.13 1012.48 1011.13 1011.90 1012.35 1013.57 1013.02 1012.10 1012.25 1012.79 1013.32 1014.00 1014.54 1014.96 1015.44 1015.35 1015.36 1015.35 1015.38 1015.46 1015.52 1015.55 1015.51 1015.74 1015.58 1015.47 1015.51 1015.40 1015.23 1015.16 1014.97 1014.83 1014.69 1014.59 1014.47 1014.42 1014.38 1014.18 1014.18 1014.15 1014.04 1013.96
1009.61 1010.55 1011.55 1012.18 1013.08 1013.31 1013.43 1013.14 1012.57 1011.56 1012.42 1011.90 1012.43 1012.41 1012.30 1012.27 1013.13 1013.66 1014.13 1014.81 1015.12 1015.41 1015.58 1015.56 1015.53 1015.59 1015.70 1015.81 1015.83 1015.70 1015.67 1015.63 1015.58 1015.57 1015.36 1015.01 1015.07 1014.91 1014.81 1014.65 1014.49 1014.49 1014.48 1014.28 1014.19 1014.07 1013.90 1013.93 1013.76
1009.70 1010.85 1011.15 1011.51 1012.42 1012.93 1013.26 1013.45 1012.94 1012.47 1011.81 1011.70 1011.47 1011.73 1012.15 1012.54 1012.86 1013.95 1014.45 1015.19 1015.16 1015.45 1015.67 1015.60 1015.56 1015.73 1015.85 1016.01 1016.00 1015.89 1015.81 1015.88 1015.74 1015.62 1015.38 1015.03 1015.04 1014.84 1014.70 1014.59 1014.43 1014.47 1014.38 1014.12 1014.02 1013.98 1013.67 1013.65 1013.56
1009.15 1010.34 1010.64 1010.79 1011.89 1012.17 1012.82 1013.04 1012.32 1012.19 1011.56 1011.20 1011.00 1011.66 1012.09 1012.52 1013.17 1014.19 1014.90 1015.61 1015.74 1015.87 1015.89 1015.93 1015.94 1015.98 1016.10 1016.09 1016.07 1016.03 1016.00 1015.92 1015.84 1015.93 1015.57 1015.51 1015.44 1015.18 1014.97 1014.67 1014.45 1014.38 1014.32 1014.08 1013.92 1013.86 1013.73 1013.56 1013.49
1008.41 1009.85 1010.19 1010.36 1010.55 1011.95 1012.46 1012.59 1012.03 1010.89 1010.50 1010.68 1010.94 1011.13 1011.88 1012.77 1013.39 1014.43 1015.51 1016.19 1016.20 1016.38 1016.47 1016.25 1016.14 1016.14 1016.17 1016.22 1016.21 1016.20 1016.22 1016.23 1016.16 1016.12 1015.95 1015.91 1015.94 1015.81 1015.45 1015.08 1014.82 1014.63 1014.39 1014.12 1014.09 1013.96 1013.73 1013.47 1013.32
1008.33 1009.32 1008.87 1008.78 1009.06 1010.96 1011.57 1011.37 1011.19 1011.02 1010.62 1011.22 1011.46 1011.53 1012.51 1013.10 1013.70 1014.77 1015.69 1016.47 1016.82 1016.79 1016.73 1016.65 1016.24 1016.14 1016.10 1016.18 1016.48 1016.54 1016.59 1016.57 1016.51 1016.52 1016.46 1016.38 1016.39 1016.23 1015.96 1015.62 1015.24 1014.86 1014.72 1014.56 1014.39 1014.16 1013.85 1013.63 1013.57
1007.97 1008.21 1007.72 1007.42 1008.18 1008.94 1010.57 1011.43 1010.82 1010.58 1010.86 1010.23 1011.05 1012.16 1013.13 1013.70 1014.37 1015.07 1016.17 1016.52 1016.82 1016.98 1017.02 1016.81 1016.38 1016.17 1016.32 1016.67 1016.79 1016.83 1016.83 1016.87 1016.94 1016.91 1016.84 1016.80 1016.71 1016.64 1016.47 1016.19 1015.90 1015.59 1015.28 1015.06 1014.72 1014.43 1014.19 1014.07 1013.92
1007.67 1007.11 1007.03 1006.73 1008.14 1009.32 1010.00 1010.80 1010.97 1010.38 1010.32 1010.41 1011.51 1011.96 1012.91 1013.78 1014.81 1015.46 1016.17 1016.75 1017.02 1017.16 1017.26 1017.19 1016.82 1016.83 1017.03 1017.01 1017.07 1017.15 1017.21 1017.31 1017.45 1017.41 1017.33 1017.35 1017.44 1017.28 1016.98 1016.74 1016.44 1016.09 1015.81 1015.52 1015.19 1014.85 1014.57 1014.37 1014.10
1007.19 1006.64 1006.47 1006.14 1007.68 1008.57 1009.55 1010.11 1010.69 1010.92 1010.81 1011.35 1012.03 1012.13 1012.98 1014.03 1014.80 1015.70 1016.14 1016.60 1016.98 1017.06 1017.32 1017.36 1017.20 1017.34 1017.34 1017.34 1017.44 1017.43 1017.44 1017.53 1017.66 1017.65 1017.65 1017.67 1017.74 1017.71 1017.39 1017.12 1016.76 1016.37 1016.03 1015.74 1015.39 1015.13 1014.88 1014.60 1014.27
1006.43 1006.32 1006.12 1006.40 1007.67 1008.45 1009.34 1010.65 1010.73 1011.36 1011.46 1011.99 1012.21 1012.24 1012.75 1013.69 1014.71 1015.80 1016.22 1016.63 1016.82 1017.08 1017.40 1017.45 1017.50 1017.46 1017.37 1017.47 1017.55 1017.69 1017.62 1017.89 1017.97 1018.04 1018.06 1017.92 1017.97 1017.94 1017.82 1017.53 1017.14 1016.73 1016.37 1015.98 1015.72 1015.48 1015.23 1014.92 1014.46
1006.31 1006.45 1005.79 1006.28 1007.57 1008.66 1009.92 1011.43 1010.47 1010.65 1011.41 1011.87 1012.43 1012.56 1013.22 1014.16 1015.05 1015.75 1016.30 1016.64 1017.00 1017.40 1017.57 1017.82 1017.87 1017.82 1017.95 1018.01 1017.95 1017.94 1017.99 1018.25 1018.36 1018.39 1018.26 1018.17 1018.19 1018.15 1018.10 1017.90 1017.58 1017.13 1016.63 1016.20 1015.85 1015.53 1015.14 1014.93 1014.54
1006.64 1006.56 1006.30 1005.60 1007.15 1008.23 1007.98 1010.02 1010.18 1010.62 1011.04 1011.60 1012.33 1012.89 1013.78 1014.95 1015.42 1016.40 1017.12 1017.53 1017.83 1017.73 1018.18 1018.35 1018.41 1018.50 1018.51 1018.48 1018.37 1018.24 1018.36 1018.55 1018.67 1018.67 1018.59 1018.51 1018.40 1018.32 1018.27 1018.17 1017.94 1017.42 1016.94 1016.55 1016.21 1015.93 1015.52 1015.16 1014.83
1007.43 1007.05 1006.55 1005.90 1005.59 1007.18 1008.34 1009.66 1010.25 1010.81 1011.02 1011.83 1012.41 1013.34 1014.40 1015.64 1016.41 1017.09 1017.82 1018.29 1018.41 1018.57 1018.77 1018.98 1019.05 1019.06 1019.00 1018.78 1018.73 1018.77 1018.80 1018.94 1019.25 1019.23 1019.16 1019.04 1018.84 1018.70 1018.55 1018.40 1018.18 1017.67 1017.31 1016.96 1016.61 1016.21 1015.96 1015.65 1015.08
1007.97 1007.45 1006.51 1006.04 1005.66 1006.56 1007.81 1008.54 1009.47 1010.06 1010.60 1011.50 1012.39 1013.57 1014.63 1015.96 1017.15 1017.65 1018.07 1018.33 1018.65 1019.19 1019.58 1019.81 1019.73 1019.48 1019.35 1019.11 1018.90 1018.93 1019.24 1019.65 1019.71 1019.69 1019.66 1019.45 1019.18 1018.95 1018.87 1018.51 1018.19 1017.77 1017.54 1017.21 1016.76 1016.50 1016.06 1015.79 1015.39
1007.62 1007.43 1006.91 1005.93 1005.31 1006.07 1006.97 1008.18 1008.89 1009.77 1010.65 1011.74 1012.94 1014.18 1015.48 1016.34 1016.98 1017.44 1017.99 1018.50 1019.03 1019.53 1019.92 1020.31 1020.36 1020.14 1019.82 1019.68 1019.72 1019.75 1020.27 1020.40 1020.42 1020.19 1019.93 1019.72 1019.47 1019.20 1019.05 1018.67 1018.22 1017.95 1017.68 1017.53 1017.17 1016.78 1016.54 1016.04 1015.34
1007.32 1007.12 1006.42 1005.48 1004.51 1005.06 1006.41 1007.48 1008.77 1009.50 1010.22 1011.24 1012.31 1013.91 1014.57 1016.17 1016.82 1017.35 1018.05 1018.93 1019.49 1019.94 1019.98 1020.48 1020.68 1020.58 1020.38 1020.09 1020.21 1020.21 1020.59 1020.80 1020.74 1020.55 1020.23 1019.95 1019.69 1019.39 1019.05 1018.72 1018.57 1018.37 1018.04 1017.76 1017.56 1017.25 1016.93 1016.53 1016.11
1006.46 1006.40 1005.83 1005.44 1004.86 1005.34 1006.53 1009.08 1010.27 1011.11 1011.37 1012.42 1013.62 1014.72 1015.63 1015.76 1016.54 1017.43 1018.41 1018.90 1019.54 1020.11 1020.00 1020.43 1020.61 1020.78 1020.78 1020.53 1020.58 1020.67 1020.81 1021.04 1021.11 1020.91 1020.62 1020.32 1019.90 1019.52 1019.25 1018.92 1018.75 1018.56 1018.36 1018.28 1018.20 1017.93 1017.66 1017.41 1016.72
1005.54 1004.77 1005.02 1005.14 1005.34 1005.98 1005.80 1009.30 1010.29 1011.07 1011.88 1012.38 1012.98 1013.35 1014.38 1013.31 1015.97 1016.29 1017.90 1018.78 1019.58 1020.29 1019.99 1020.23 1020.59 1020.88 1020.98 1020.99 1021.06 1021.18 1021.36 1021.61 1021.57 1021.24 1021.08 1020.65 1020.16 1019.80 1019.45 1019.18 1018.92 1018.87 1018.65 1018.64 1018.57 1018.48 1018.33 1018.02 1017.94
1004.30 1003.94 1004.48 1005.20 1005.85 1006.52 1007.04 1008.70 1009.73 1010.36 1011.83 1011.90 1012.33 1012.56 1013.20 1014.31 1015.04 1016.53 1017.69 1018.27 1019.32 1019.89 1020.09 1020.31 1020.75 1020.99 1021.25 1021.31 1021.21 1021.42 1021.75 1021.71 1021.49 1021.46 1021.30 1020.98 1020.43 1019.93 1019.76 1019.57 1019.35 1019.21 1019.11 1019.18 1019.08 1019.00 1018.88 1018.75 1018.88
1003.21 1003.51 1004.42 1005.80 1006.79 1007.75 1007.35 1008.14 1009.64 1009.99 1009.29 1010.89 1011.71 1012.38 1013.38 1014.59 1015.34 1016.20 1017.54 1018.03 1019.08 1019.60 1019.86 1020.39 1020.91 1021.34 1021.52 1021.36 1021.46 1021.67 1021.83 1021.87 1021.95 1021.89 1021.70 1021.40 1020.90 1020.55 1020.21 1019.90 1019.79 1019.53 1019.52 1019.62 1019.50 1019.36 1019.27 1019.24 1019.21
1002.98 1004.54 1005.94 1007.09 1007.73 1008.05 1007.38 1008.22 1008.15 1008.25 1008.10 1008.47 1010.15 1011.82 1012.78 1013.71 1014.78 1015.90 1017.16 1017.93 1018.60 1019.34 1019.60 1020.36 1020.91 1021.53 1021.46 1021.47 1021.67 1021.74 1021.81 1021.93 1022.06 1022.04 1021.91 1021.87 1021.33 1020.83 1020.38 1020.15 1020.19 1020.01 1019.80 1019.72 1019.59 1019.67 1019.58 1019.53 1019.58
1003.21 1004.32 1006.23 1007.27 1008.06 1008.23 1007.62 1007.93 1007.73 1007.74 1008.30 1009.09 1009.98 1011.32 1012.50 1013.66 1014.69 1015.70 1016.79 1017.32 1018.28 1018.71 1019.37 1020.04 1020.80 1021.25 1021.37 1021.58 1021.74 1021.81 1021.92 1022.03 1021.97 1021.91 1021.81 1021.81 1021.40 1021.03 1020.33 1020.09 1020.14 1020.08 1020.02 1019.85 1019.78 1019.75 1019.72 1019.62 1019.67
1002.75 1003.75 1004.36 1006.31 1007.38 1008.01 1007.82 1007.79 1007.49 1007.93 1008.57 1009.31 1010.23 1011.29 1012.36 1013.10 1014.13 1015.20 1015.74 1016.73 1017.57 1018.09 1018.92 1019.63 1020.40 1020.93 1021.31 1021.53 1021.73 1021.93 1022.01 1022.03 1021.97 1021.79 1021.73 1021.69 1021.38 1020.99 1020.74 1020.40 1020.28 1020.42 1020.35 1020.23 1019.73 1019.92 1019.80 1019.68 1019.79
1002.22 1002.35 1004.51 1006.29 1007.54 1008.31 1008.29 1007.73 1007.65 1007.61 1008.48 1009.03 1010.01 1010.77 1011.74 1012.69 1013.44 1014.15 1015.10 1016.29 1016.98 1017.74 1018.50 1019.28 1019.84 1020.48 1021.00 1021.36 1021.67 1021.89 1021.96 1021.93 1021.85 1021.82 1021.70 1021.62 1021.45 1021.11 1020.96 1020.92 1020.58 1020.75 1020.80 1020.65 1020.53 1020.25 1020.07 1019.99 1020.12
1002.14 1002.43 1003.88 1005.52 1006.70 1007.68 1008.36 1007.64 1006.37 1006.57 1006.84 1008.22 1008.89 1009.88 1010.63 1011.56 1012.31 1013.54 1014.64 1015.79 1016.72 1017.60 1018.36 1019.00 1019.63 1020.33 1020.92 1021.28 1021.57 1021.82 1021.86 1021.82 1021.68 1021.71 1021.72 1021.68 1021.50 1021.17 1021.18 1021.25 1021.18 1021.09 1021.18 1021.11 1020.95 1020.68 1020.47 1020.50 1020.42
1001.45 1002.01 1003.02 1005.37 1006.59 1007.39 1007.50 1006.80 1005.30 1005.60 1005.94 1006.76 1007.76 1008.81 1009.69 1010.36 1011.67 1013.16 1014.27 1015.60 1016.54 1017.43 1018.16 1018.72 1019.46 1020.08 1020.50 1020.93 1021.30 1021.66 1021.69 1021.74 1021.61 1021.58 1021.56 1021.42 1021.43 1021.11 1021.23 1021.37 1021.34 1021.39 1021.38 1021.29 1021.15 1021.01 1020.82 1020.79 1020.85
Wind_Speed
4 5 1 3 5 6 4 3 4 13 6 14 13 7 9 8 3 5 2 12 12 9 6 9 12 14 14 14 13 12 12 13 12 12 11 10 10 10 8 6 5 5 5 4 4 4 5 5 5
2 5 3 2 6 4 5 3 2 13 13 20 10 7 10 6 7 12 8 11 10 9 7 7 13 13 14 14 12 11 11 11 10 10 9 8 7 6 5 5 6 6 5 4 4 4 4 5 5
2 2 4 5 4 6 6 4 6 10 14 12 7 5 4 4 12 10 13 13 10 7 7 10 13 12 13 13 12 10 10 9 9 9 7 6 6 5 5 5 5 5 5 6 6 6 6 6 7
2 4 4 5 3 4 3 1 12 10 19 17 8 4 4 4 3 10 15 14 12 6 6 11 13 13 12 12 11 10 8 7 7 7 7 5 4 3 3 3 3 3 4 5 6 7 7 8 8
4 3 3 5 4 1 1 8 9 20 22 17 17 6 6 5 15 18 15 12 12 6 5 8 12 12 12 12 11 11 9 8 7 7 5 4 2 2 2 2 4 5 6 7 7 8 9 9 10
4 3 4 1 5 6 0 6 10 8 12 7 14 11 4 8 19 14 13 12 10 9 6 6 10 10 9 9 9 9 8 6 6 6 5 4 4 5 4 5 6 7 8 9 10 9 9 10 10
6 5 5 5 6 5 6 11 4 8 16 12 15 10 4 7 18 13 13 10 11 8 5 5 5 8 9 7 6 7 7 5 6 9 14 18 13 7 5 7 8 7 9 9 9 11 10 10 11
6 5 4 3 8 6 13 14 7 8 10 13 12 6 7 7 18 16 12 9 7 6 5 3 4 4 5 4 6 6 7 7 11 13 16 15 15 14 17 8 8 8 9 10 10 11 11 12 12
4 4 5 5 6 7 16 7 4 9 14 11 6 11 13 21 23 18 15 13 9 9 6 3 2 4 4 5 5 5 10 12 12 11 16 11 7 8 10 14 16 14 14 15 16 14 13 14 9
6 4 7 8 7 12 16 9 12 9 16 8 20 7 17 19 19 18 14 11 8 7 6 3 4 5 5 5 4 5 7 5 6 7 8 6 7 8 11 13 18 17 18 15 14 14 14 12 6
3 6 8 9 4 21 13 9 4 17 12 23 22 16 18 17 14 16 12 11 9 6 6 6 7 9 9 6 4 4 3 4 4 8 7 6 6 6 6 5 6 6 12 6 7 7 5 7 5
1 8 6 11 13 13 21 10 6 6 10 18 16 20 18 18 14 14 14 11 10 9 8 7 7 7 6 4 4 4 4 3 3 5 6 5 4 5 6 5 6 5 4 6 5 5 6 6 6
6 8 6 12 14 18 19 7 5 3 9 15 17 18 18 15 15 12 12 11 10 10 8 7 7 6 5 6 3 4 4 4 4 5 6 5 5 5 5 5 4 5 5 4 6 5 5 5 7
5 6 10 4 15 18 16 9 8 5 9 15 15 16 16 16 16 12 10 9 9 8 8 6 7 6 6 5 5 4 4 5 4 4 4 6 4 4 5 5 5 6 4 5 4 4 4 4 5
4 5 9 9 16 9 17 2 7 17 9 15 14 13 14 15 14 11 9 9 8 7 8 7 6 7 6 4 3 4 4 5 4 4 5 6 5 6 6 4 6 6 5 6 5 5 5 6 6
5 3 1 4 12 16 9 8 16 18 18 16 16 13 14 11 13 11 10 10 8 10 9 7 7 6 7 7 5 3 4 4 3 3 4 6 6 6 5 4 5 5 5 4 4 4 4 5 4
7 4 3 7 7 10 1 7 13 13 14 16 15 16 15 13 12 11 10 9 9 8 8 8 7 7 6 6 5 6 6 4 4 4 4 7 6 6 4 4 4 5 4 4 4 3 3 3 5
5 3 4 6 6 7 7 8 21 16 20 18 16 16 17 15 12 12 12 10 10 8 8 7 6 7 6 4 4 4 7 7 6 5 5 6 5 6 5 4 5 5 4 4 4 3 3 2 4
5 5 8 7 9 8 10 13 22 17 17 16 15 14 12 13 13 13 12 11 10 7 8 7 6 6 5 4 3 4 5 3 4 4 5 6 5 6 6 4 6 6 5 4 5 4 4 4 7
6 7 13 9 13 9 15 15 20 20 19 19 18 16 18 15 13 14 13 9 7 6 8 6 6 6 5 3 2 3 3 3 2 3 5 5 6 6 5 6 5 6 4 6 7 6 3 3 6
11 7 10 10 3 7 11 5 11 9 1 6 9 10 10 17 17 14 12 10 8 7 8 6 5 6 5 6 4 4 4 3 3 3 3 5 5 5 5 5 5 5 4 5 5 6 8 5 4
8 10 9 8 5 4 6 8 7 8 5 11 18 21 21 22 16 17 14 11 8 6 7 7 6 6 6 7 6 7 4 3 2 2 2 4 5 6 5 5 5 5 4 6 4 5 4 4 7
15 10 7 6 5 3 0 6 4 9 9 11 19 20 18 18 18 16 14 13 10 8 7 6 7 7 6 6 7 5 4 2 1 3 5 5 5 5 5 6 5 5 4 5 6 6 7 4 4
10 4 5 5 5 2 6 5 3 8 17 9 14 14 17 16 15 16 13 14 11 7 8 7 8 6 6 6 6 7 7 4 4 4 3 4 4 4 5 5 5 6 6 5 4 5 7 5 5
3 7 3 5 4 7 4 5 7 14 10 17 18 15 20 18 18 16 16 13 13 11 9 7 9 7 6 7 5 6 5 4 2 2 3 4 4 3 5 4 4 4 4 5 5 6 6 4 4
8 10 8 8 4 5 4 6 5 8 1 7 9 10 18 16 15 16 17 16 15 13 12 9 10 8 7 6 6 4 4 2 1 1 1 3 3 3 5 2 2 5 6 5 4 2 2 3 5
6 3 9 6 1 2 2 1 4 6 7 7 11 16 19 18 17 20 18 17 15 14 13 12 11 7 7 7 5 3 3 3 1 3 0 1 2 2 4 5 5 6 7 7 5 3 4 5 5
8 7 2 3 6 5 3 2 5 5 9 13 15 20 19 17 18 18 17 15 13 14 12 11 13 12 8 7 6 4 4 3 1 2 1 1 2 3 5 6 5 6 7 7 7 6 5 6 3
4 2 4 5 6 7 4 7 8 11 10 17 19 19 21 20 19 18 16 13 14 12 12 11 11 11 8 7 6 5 5 5 3 4 3 3 1 2 6 4 5 6 6 6 6 6 6 6 6
6 6 7 7 5 2 6 7 4 10 12 15 17 19 21 22 19 18 15 15 15 14 12 11 11 11 9 7 6 6 5 5 4 4 4 6 4 1 5 5 5 5 5 5 6 5 5 5 4
Wind_Direction
176 149 117 48 61 59 352 326 43 20 69 33 64 79 84 28 357 148 168 123 135 131 123 107 102 99 96 94 92 89 88 85 85 85 82 80 79 76 73 70 66 64 57 55 45 35 28 13 2
159 132 52 92 92 68 290 309 17 60 27 337 329 87 79 69 83 123 115 148 129 128 121 118 112 109 107 105 105 108 108 108 110 106 99 95 94 88 77 57 39 27 19 8 357 350 344 339 333
207 203 104 124 114 159 193 212 97 77 44 331 271 356 68 101 119 142 129 136 123 126 129 125 120 118 113 110 110 104 99 99 96 91 85 78 65 52 39 28 17 1 347 333 329 326 323 315 311
149 8 21 85 154 315 321 275 90 74 38 314 325 58 55 101 126 130 138 139 126 116 121 127 128 126 125 124 122 114 108 99 88 79 69 59 50 37 26 355 341 314 301 299 303 300 298 298 297
39 53 53 103 129 130 267 104 112 128 158 231 236 149 118 139 118 136 138 131 126 137 146 133 135 133 132 129 124 115 105 95 84 64 48 33 7 0 327 307 290 285 296 301 301 300 302 299 296
22 98 52 189 113 165 89 132 171 101 187 144 159 143 148 110 139 152 142 131 137 141 141 138 136 136 131 124 121 116 111 104 95 66 10 330 319 315 303 284 287 301 315 316 312 308 306 300 296
133 96 225 181 135 144 139 176 205 149 168 139 144 121 155 129 159 132 120 127 135 131 116 129 137 134 121 118 120 118 116 103 75 39 41 40 33 351 301 304 299 305 311 312 309 305 300 295 290
115 104 272 260 145 178 142 181 179 168 199 139 133 148 161 105 119 109 103 113 95 95 97 111 91 99 125 130 134 134 121 74 56 46 44 41 28 23 23 349 292 314 311 303 313 306 306 292 285
112 73 255 239 119 129 148 168 226 217 151 177 210 142 131 116 115 109 101 100 94 78 71 81 121 154 150 146 148 122 88 71 57 47 42 33 24 15 16 13 21 7 26 38 25 20 17 11 332
112 131 242 185 140 155 178 173 180 158 143 139 136 130 121 119 117 117 115 111 103 89 72 57 58 74 165 97 64 73 85 63 51 47 43 30 28 19 14 7 11 14 22 12 10 6 8 7 354
165 190 241 276 116 142 152 175 205 134 150 153 155 118 120 115 114 113 112 116 119 113 76 41 46 48 62 69 63 61 69 56 40 43 42 33 26 13 10 359 1 4 6 2 358 354 358 350 346
255 241 225 264 116 128 162 141 153 154 160 151 128 129 128 124 127 128 126 127 122 104 94 72 57 64 60 64 59 66 80 83 66 54 46 47 28 13 5 4 353 357 345 347 347 351 348 351 354
180 263 274 259 159 142 138 144 137 189 132 127 136 129 130 134 129 127 128 121 123 110 103 86 80 76 81 86 80 68 66 80 77 57 45 48 38 17 1 356 346 344 344 350 351 352 353 347 347
246 271 266 144 138 142 141 153 137 201 157 144 142 137 132 132 129 129 126 122 117 107 92 86 76 74 68 63 62 64 68 88 75 63 53 54 49 26 14 353 350 342 342 338 351 345 339 334 339
250 280 309 143 138 130 115 153 198 165 175 153 148 139 135 126 127 123 128 104 105 102 99 85 73 49 49 46 45 56 54 79 78 69 55 54 49 29 17 5 4 346 333 349 358 347 353 358 338
345 65 232 275 139 169 161 182 172 173 174 156 145 122 112 115 109 109 100 96 93 93 79 59 62 59 59 45 33 37 57 99 99 73 56 49 50 46 37 17 358 335 348 351 350 355 347 341 340
7 247 205 294 179 155 168 119 175 179 163 151 135 128 116 107 91 98 98 99 84 81 79 62 55 52 61 54 49 48 51 70 39 40 36 36 35 30 35 23 345 341 345 346 352 329 10 342 336
250 313 299 242 281 150 172 171 174 173 161 159 140 137 132 126 123 117 107 95 89 76 65 59 51 43 40 35 45 41 58 58 47 48 43 34 21 22 6 15 357 347 348 351 356 350 333 303 311
236 225 249 270 256 183 193 159 179 171 163 161 142 138 132 128 137 127 120 113 102 87 81 56 54 26 42 24 12 35 54 45 39 33 35 29 22 16 3 8 5 355 7 6 7 335 353 331 351
255 262 277 283 264 182 167 175 174 176 177 170 151 149 144 141 147 137 130 120 110 129 116 93 75 49 41 47 21 77 112 61 69 23 20 18 19 15 13 14 4 1 6 13 8 0 347 359 14
257 231 254 233 338 67 95 49 170 194 132 156 144 120 138 156 158 143 141 141 139 148 135 123 100 80 63 59 55 49 61 39 21 8 3 358 9 11 8 15 12 3 13 17 14 18 26 10 354
245 224 236 229 123 206 130 223 211 158 116 158 160 166 177 167 155 149 154 147 151 163 131 123 115 100 79 73 71 79 86 71 322 360 350 350 3 10 0 15 25 17 10 23 9 23 25 33 25
251 248 215 155 175 115 116 106 282 140 170 179 180 178 180 167 154 150 155 153 156 154 141 133 107 103 95 95 95 91 87 80 11 16 15 360 347 11 11 14 21 26 33 35 43 32 32 37 49
247 232 40 69 110 113 228 132 246 189 209 156 179 189 163 161 151 154 159 152 156 158 139 141 117 120 119 103 98 104 96 85 46 11 15 352 343 352 11 18 33 47 48 34 43 43 48 37 44
126 65 330 340 16 209 226 93 225 211 207 195 184 157 166 162 160 154 159 162 159 166 148 145 128 139 128 111 114 113 109 101 77 31 28 350 346 327 353 19 43 40 42 35 40 54 41 30 43
216 154 158 207 208 237 263 161 240 222 98 85 151 170 153 158 159 163 169 165 170 163 156 142 144 142 131 128 122 122 139 155 264 320 354 305 291 310 339 57 88 77 45 19 18 22 63 55 39
248 152 194 144 233 76 212 165 328 138 132 119 145 151 163 170 168 171 167 172 173 159 161 154 149 138 145 144 132 164 199 202 215 307 99 241 331 358 19 28 38 33 47 25 5 5 2 31 50
185 185 84 356 168 224 311 145 218 215 168 169 163 168 173 171 169 171 170 171 169 161 156 147 151 151 156 151 161 195 213 239 225 190 142 41 349 30 24 21 75 60 45 30 31 12 10 61 37
303 177 79 122 135 172 174 261 210 197 203 171 181 174 172 174 171 173 170 164 157 152 155 149 147 147 152 163 178 199 234 252 204 203 205 207 253 53 54 70 64 60 50 28 40 20 36 37 45
170 217 152 143 234 134 149 263 225 197 191 171 180 176 178 177 171 169 157 156 152 153 154 149 151 153 161 170 174 197 225 200 198 236 211 202 195 161 84 112 86 70 62 48 46 32 20 35 24